This is the latest recevied weather packets stored in our database for station/object K1LVA. If no packets are shown the sender has not sent any weather packets the latest 10 day(s).
| Time | Temp. | Humidity | Pressure | Rain* | Wind** | Luminosity | Snow |
|---|---|---|---|---|---|---|---|
| 1778144012 | 19.44° C | 97% | 1012 hPa | 1.27 mm | - | 0 W/m² | - |
| 1778143709 | 20° C | 97% | 1012.2 hPa | 3.05 mm | - | 0 W/m² | - |
| 1778143405 | 20° C | 97% | 1012.1 hPa | 3.05 mm | - | 0 W/m² | - |
| 1778143103 | 20° C | 97% | 1012.1 hPa | 3.05 mm | - | 0 W/m² | - |
| 1778142799 | 20° C | 97% | 1012 hPa | 3.05 mm | - | 0 W/m² | - |
| 1778142495 | 20° C | 96% | 1011.9 hPa | 1.27 mm | - | 0 W/m² | - |
| 1778142191 | 20° C | 96% | 1012.1 hPa | 1.78 mm | - | 0 W/m² | - |
| 1778141889 | 20° C | 96% | 1012.2 hPa | 1.78 mm | - | 0 W/m² | - |
| 1778141584 | 20° C | 95% | 1012.4 hPa | 1.27 mm | - | 0 W/m² | - |
| 1778141281 | 20° C | 95% | 1012.1 hPa | 1.27 mm | - | 0 W/m² | - |
| 1778140977 | 20.56° C | 94% | 1012.3 hPa | 0 mm | - | 0 W/m² | - |
| 1778140672 | 20.56° C | 93% | 1012.1 hPa | 0 mm | - | 0 W/m² | - |
| 1778140369 | 20.56° C | 92% | 1012 hPa | 1.78 mm | - | 0 W/m² | - |
| 1778140065 | 20.56° C | 91% | 1011.6 hPa | 1.78 mm | - | 0 W/m² | - |
| 1778139764 | 21.11° C | 90% | 1011.3 hPa | 0 mm | - | 0 W/m² | - |
| 1778139460 | 21.11° C | 88% | 1011.5 hPa | 0 mm | - | 0 W/m² | - |
| 1778139156 | 21.67° C | 87% | 1011.5 hPa | 0 mm | - | 0 W/m² | - |
| 1778138854 | 21.67° C | 85% | 1011.9 hPa | 0 mm | - | 0 W/m² | - |
| 1778138552 | 21.67° C | 84% | 1012 hPa | 0 mm | - | 0 W/m² | - |
| 1778138249 | 21.67° C | 83% | 1012.1 hPa | 0 mm | - | 0 W/m² | - |
| 1778137945 | 21.11° C | 83% | 1012.3 hPa | 0 mm | - | 0 W/m² | - |
| 1778137642 | 21.11° C | 85% | 1012.6 hPa | 0 mm | - | 0 W/m² | - |
| 1778137339 | 20.56° C | 86% | 1012.3 hPa | 0 mm | - | 0 W/m² | - |
| 1778137036 | 20.56° C | 86% | 1012.1 hPa | 0 mm | - | 0 W/m² | - |
| 1778136733 | 20.56° C | 88% | 1012 hPa | 0 mm | - | 0 W/m² | - |
* Rain latest hour (hover to see other rain measurements)
** Current wind speed in m/s (hover to see current wind gust speed)